Regional Weather Roundup
Issued by NWS Green Bay, WI

Home | Current Version | Previous Version | Text Only | Print | Product List | Glossary On
Versions: 1 2 3 4 5 6 7 8 9 10 11 12 13 14 15 16 17 18 19 20 21 22 23 24 25 26 27 28 29 30 31 32 33 34 35 36 37 38 39 40 41 42 43 44 45 46 47 48 49 50
000
ASUS43 KGRB 261400
RWRGRB

NORTH-CENTRAL AND NORTHEAST WISCONSIN REGIONAL WEATHER ROUNDUP
NATIONAL WEATHER SERVICE GREEN BAY WI
900 AM CDT SUN MAR 26 2017

WIZ005-009-010>012-018-019-261500-
NORTH CENTRAL WISCONSIN

CITY           SKY/WX    TMP DP  RH WIND       PRES   REMARKS
IRONWOOD       CLOUDY    34  32  92 CALM      29.97F FOG
MANITOWISH WTR NOT AVBL
ARBOR VITAE    NOT AVBL
EAGLE RIVER    NOT AVBL
LAND O LAKES   NOT AVBL
RHINELANDER    LGT RAIN  34  33  96 NE3       29.94F FOG
PHILLIPS       NOT AVBL
ANTIGO         NOT AVBL
TOMAHAWK       NOT AVBL
MERRILL        NOT AVBL
$$

WIZ013-073-261500-
NORTHEAST WISCONSIN

CITY           SKY/WX    TMP DP  RH WIND       PRES   REMARKS
IRON MOUNTAIN  FOG       32  30  92 E5        29.97F VSB 1/2
MARINETTE        N/A    N/A N/A N/A MISG        N/A
$$

WIZ017-030-035>037-045-261500-
CENTRAL WISCONSIN

CITY           SKY/WX    TMP DP  RH WIND       PRES   REMARKS
MEDFORD        NOT AVBL
WAUSAU         CLOUDY    33  33 100 NE5       29.92F FOG
MOSINEE        CLOUDY    34  34 100 NE10      29.93F FOG
MARSHFIELD     RAIN      33  32  96 NE8       29.91S FOG
WISC RAPIDS    CLOUDY    34  34 100 E8        29.93F
STEVENS POINT  NOT AVBL
WAUPACA        NOT AVBL
SHAWANO        NOT AVBL
CLINTONVILLE   NOT AVBL
WAUTOMA        CLOUDY    35  35 100 NE9       29.92F FOG
$$

WIZ038-039-048-051-261500-
FOX VALLEY

CITY           SKY/WX    TMP DP  RH WIND       PRES   REMARKS
NWS GREEN BAY  LGT RAIN  36  36 100 NE12      29.95F
APPLETON       DRIZZLE   36  36 100 NE8       29.92S FOG
OSHKOSH        FOG       37  35  92 NE8       29.92F VSB 1
FOND DU LAC    CLOUDY    39  37  92 NE8       29.91F FOG
$$

WIZ022-050-052-261500-
EAST CENTRAL WISCONSIN

CITY           SKY/WX    TMP DP  RH WIND       PRES   REMARKS
EPHRAIM        NOT AVBL
WASHINGTON ISL NOT AVBL
STURGEON BAY   LGT RAIN  36  35  96 E7        29.97F
MANITOWOC      NOT AVBL
SHEBOYGAN      LGT RAIN  38  36  92 NE9       29.93F FOG
$$

LMZ563-521-522-541>543-261500-
LAKESHORE

STATION/POSITION TIME  TEMP    WIND        PRES    VSBY  WAVE
                       AIR SEA DIR/SP/G                  HT/PER
                 (UTC) (F)     (DEG/KT/KT) (MB)    (MI)  (FT/S)
SHEBOYGAN LKSHOR 1300   37      40/ 10/ 11 1014.4S
KEWAUNEE LKSHORE 1330   36      50/  7/ 10 1014.0F
NORTHPORT PIER   1340   34      70/ 11/ 15 1015.6F
SISTER BAY LKSHO 1306   34     130/  8/ 10   N/A
CHAMBERS ISLAND  1340   34      60/  6/  9 1015.2F
MENOMINEE LKSHOR 1330   33      10/  6/  8 1014.7F
$$



USA.gov is the U.S. government's official web portal to all federal, state and local government web resources and services.